Location: *
(50.8160°S, 176.0219°W)
Time: 23:17:18
(UTC+00:00)

Cosmos 1908 Rocket - Pass Details

Date: 19 May 2026
Orbit: 600 x 623 km, 82.5° (Epoch: 6 June)

Event Time Altitude Azimuth Distance (km) Brightness Sun altitude
Rises 16:55:45 0° 353° (N) 2,908 7.0 -22.3°
Reaches altitude 10° 16:57:58 10° 354° (N) 2,008 6.2 -21.9°
Maximum altitude 17:02:26 84° 79° (ENE) 643 3.6 -21.2°
Drops below altitude 10° 17:06:57 10° 169° (SSE) 2,026 6.2 -20.5°
Sets 17:09:12 0° 169° (SSE) 2,936 7.1 -20.2°
